Regional Weather Roundup
Issued by NWS Cleveland, OH

Home | Current Version | Previous Version | Graphics & Text | Print | Product List | Glossary On
Versions: 1 2 3 4 5 6 7 8 9 10 11 12 13 14 15 16 17 18 19 20 21 22 23 24 25 26 27 28 29 30 31 32 33 34 35 36 37 38 39 40 41 42 43 44 45 46 47 48 49 50
000
ASUS41 KCLE 280910
RWRCLE
OHIO REGIONAL WEATHER ROUNDUP
NATIONAL WEATHER SERVICE WILMINGTON, OH
500 AM EDT FRI JUL 28 2017

NOTE: "FAIR" INDICATES FEW OR NO CLOUDS BELOW 12,000 FEET WITH NO
SIGNIFICANT WEATHER AND/OR OBSTRUCTIONS TO VISIBILITY.

OHZ001>008-015>018-024>027-034-035-043-044-281000-
   NORTHWEST OHIO

CITY           SKY/WX    TMP DP  RH WIND       PRES   REMARKS
DEFIANCE       FAIR      65  60  84 N7        29.91S
FINDLAY        FAIR      68  62  81 NE9       29.89S
TOLEDO EXPRESS FAIR      64  60  87 N6        29.91S
TOLEDO EXEC    FAIR      66  62  87 N3        29.91S
LIMA           CLOUDY    67  65  93 NE7       29.90R
$$

OHZ009>014-019>023-028>033-038-089-281000-
   NORTHEAST OHIO

CITY           SKY/WX    TMP DP  RH WIND       PRES   REMARKS
CLE-HOPKINS    MOCLDY    73  67  81 N5        29.89F
CLE-LAKEFRONT  FAIR      71  66  84 CALM      29.86F
CUY CO. ARPT   NOT AVBL
LORAIN-ELYRIA  FAIR      63  59  87 N3        29.89F
ASHTABULA      MOCLDY    62  62 100 CALM      29.89F FOG
AKRON-CANTON   CLOUDY    68  63  84 NE8       29.87F
WOOSTER        MOCLDY    66  65  96 N5        29.88F
MANSFIELD      CLOUDY    67  67 100 N6        29.90S FOG
YOUNGSTOWN     MOCLDY    67  64  90 NE7       29.87F
$$

OHZ042-051>053-060>062-070>072-077>081-281000-
  SOUTHWEST OHIO

CITY           SKY/WX    TMP DP  RH WIND       PRES   REMARKS
CINC-COVINGTON RAIN      74  74 100 CALM      29.84F FOG
CINC-LUNKEN    NOT AVBL
HAMILTON       CLOUDY    74  74 100 NE3       29.85S
DAYTON         MOCLDY    70  69  97 N3        29.88S
WRIGHT-PAT AFB MOCLDY    72  72 100 NE3       29.86S
DAYTON GENERAL CLOUDY    71  69  93 NE5       29.86R
WILMINGTON     FOG       69  69 100 NE5       29.86S VSB 1/2
$$

OHZ036-037-039>041-045>050-054>059-063>069-073>076-082>088-281000-
  CENTRAL AND SOUTHEAST OHIO

CITY           SKY/WX    TMP DP  RH WIND       PRES   REMARKS
COLUMBUS       CLOUDY    71  70  96 NE5       29.85S
OSU AIRPORT    MOCLDY    69  69 100 N6        29.86S FOG
BOLTON FIELD   CLOUDY    69  69 100 CALM      29.87R FOG
RICKENBACK AFB FAIR      69  69 100 N5        29.85R
NEWARK         CLOUDY    70  68  93 N5        29.85S
MARION         CLOUDY    67  66  97 NE10      29.88F FOG
LANCASTER      CLOUDY    70  70 100 N3        29.85S
ZANESVILLE     CLOUDY    71  68  90 NE6       29.85S
NEW PHILLY     CLOUDY    70  69  97 CALM      29.86F FOG
$$



USA.gov is the U.S. government's official web portal to all federal, state and local government web resources and services.